User: anonymous   Login
Location: Keppel Henge
(44.7900°N, 80.9447°W)
Time: 13:03:41
(UTC-05:00)
Language:

STRAND 1 - Orbit

View from above orbital plane
View from above orbital plane
View from above satellite
View from above satellite

Ground track
Ground track

The orbit data is extracted from the following two-line orbital elements,

1 39090U 13009E   18055.22433084 +.00000002 +00000-0 +16174-4 0  9994
2 39090 098.5321 263.0028 0008095 273.5801 086.4458 14.35011942261600
Epoch (UTC): 24 February 2018 05:23:02
Eccentricity: 0.0008095
inclination: 98.5321°
perigee height: 769 km
apogee height: 781 km
right ascension of ascending node: 263.0028°
argument of perigee: 273.5801°
revolutions per day: 14.35011942
mean anomaly at epoch: 86.4458°
orbit number at epoch: 26160

The dashed part of the orbit path shows where the satellite is in the earth's shadow,  

DLR